Main page


Airports :

Bushehr, Iran

Bushehr Airport

latitude: 28-59N, longitude: 050-50E, elevation: 19 m

Current weather observation

The report was made 1 hour and 1 minutes ago, at 09:00 UTC
Wind 14 kt from the North/Northwest
Temperature 22°C
Humidity 43%
Pressure 1013 hPa
Visibility 10 km or more
no clouds below 1500 m and no cumulonimbus

METAR: OIBB 180900Z 33014KT CAVOK 22/09 Q1012 A2991

Time: 13:31 (10:01 UTC)

TAF: missing

Weather observations and forecasts of more than 4000 airports (METAR and TAF reports).

The available stations are represented by yellow and red dots on the map.

Hover mouse over dot to see the name of the station.

Then click to see weather observations and forecasts.

To change the map : click on the green buttons with a black cross to zoom in, on the green button with a dash to zoom out, or on the green arrows for adjacent maps.